This is the latest recevied weather packets stored in our database for station/object ZL1CTS-13. If no packets are shown the sender has not sent any weather packets the latest 10 day(s).
| Time | Temp. | Humidity | Pressure | Rain* | Wind** | Luminosity | Snow |
|---|---|---|---|---|---|---|---|
| 1788544504 | 8.33° C | 95% | 1007.1 hPa | 0 mm | - | - | - |
| 1788544203 | 7.78° C | 95% | 1006.9 hPa | 0 mm | - | - | - |
| 1788543905 | 7.78° C | 94% | 1007 hPa | 0 mm | - | - | - |
| 1788543904 | 7.78° C | 94% | 1007 hPa | 0 mm | - | - | - |
| 1788543604 | 7.78° C | 94% | 1006.8 hPa | 0 mm | - | - | - |
| 1788543304 | 7.78° C | 93% | 1006.8 hPa | 0 mm | - | - | - |
| 1788543005 | 7.78° C | 92% | 1006.7 hPa | 0 mm | - | - | - |
| 1788543004 | 7.78° C | 92% | 1006.7 hPa | 0 mm | - | - | - |
| 1788542704 | 8.33° C | 93% | 1006.7 hPa | 0 mm | - | - | - |
| 1788542404 | 8.89° C | 93% | 1006.6 hPa | 0 mm | - | - | - |
| 1788542104 | 8.89° C | 92% | 1006.7 hPa | 0 mm | - | - | - |
| 1788542104 | 8.89° C | 92% | 1006.7 hPa | 0 mm | - | - | - |
| 1788541804 | 9.44° C | 91% | 1006.7 hPa | 0 mm | - | - | - |
| 1788541504 | 9.44° C | 91% | 1006.6 hPa | 0 mm | - | - | - |
| 1788541205 | 10° C | 91% | 1006.5 hPa | 0 mm | - | - | - |
| 1788541204 | 10° C | 91% | 1006.5 hPa | 0 mm | - | - | - |
| 1788540904 | 10° C | 91% | 1006.4 hPa | 0 mm | - | - | - |
| 1788540604 | 10.56° C | 91% | 1006.2 hPa | 0 mm | - | - | - |
| 1788540305 | 10.56° C | 91% | 1006.3 hPa | 0 mm | - | - | - |
| 1788540304 | 10.56° C | 91% | 1006.2 hPa | 0 mm | - | - | - |
| 1788540004 | 10.56° C | 91% | 1006.1 hPa | 0 mm | - | - | - |
| 1788539705 | 10° C | 90% | 1006.2 hPa | 0 mm | - | - | - |
| 1788539405 | 10° C | 90% | 1005.9 hPa | 0 mm | - | - | - |
| 1788539404 | 10° C | 90% | 1005.9 hPa | 0 mm | - | - | - |
| 1788539106 | 10° C | 90% | 1005.9 hPa | 0 mm | - | - | - |
* Rain latest hour (hover to see other rain measurements)
** Current wind speed in m/s (hover to see current wind gust speed)